| time (UTC) | temp F | wind direction | speed MPH | gust MPH | rain 1hr in | rain 24hr in | rain mn in | humidity % | barometer mb |
| 20260510065712 | 0 | 37 | 0.0 | 0.0 | 0.00 | 0.00 | 0.00 | 1012.9 | |
| 20260510065704 | 60 | 219 | 0.0 | 2.0 | 0.00 | 0.01 | 0.00 | 95 | 1013.7 |
| 20260510065208 | 0 | 21 | 0.0 | 0.0 | 0.00 | 0.00 | 0.00 | 1013.0 | |
| 20260510064705 | 0 | 29 | 0.0 | 0.0 | 0.00 | 0.00 | 0.00 | 1012.9 | |
| 20260510064626 | 57 | 171 | 2.0 | 4.0 | 0.00 | 0.04 | 0.04 | 89 | 1008.8 |
| 20260510064204 | 60 | 222 | 0.0 | 2.0 | 0.00 | 0.01 | 0.00 | 94 | 1013.8 |
| 20260510063704 | 60 | 226 | 1.0 | 2.0 | 0.00 | 0.01 | 0.00 | 94 | 1013.7 |
| 20260510063659 | 0 | 16 | 0.0 | 0.0 | 0.00 | 0.00 | 0.00 | 1013.1 | |
| 20260510063204 | 60 | 226 | 1.0 | 2.0 | 0.00 | 0.01 | 0.00 | 94 | 1013.6 |
| 20260510063155 | 0 | 18 | 0.0 | 0.0 | 0.00 | 0.00 | 0.00 | 1013.3 | |
| 20260510063051 | 57 | 213 | 2.0 | 4.0 | 0.00 | 0.04 | 0.04 | 89 | 1008.7 |
| 20260510062703 | 60 | 312 | 2.0 | 3.0 | 0.00 | 0.01 | 0.00 | 94 | 1013.7 |
| 20260510062652 | 0 | 18 | 0.0 | 0.0 | 0.00 | 0.00 | 0.00 | 1013.2 | |
| 20260510062204 | 60 | 226 | 0.0 | 2.0 | 0.00 | 0.01 | 0.00 | 94 | 1013.9 |
| 20260510062148 | 0 | 19 | 0.0 | 0.0 | 0.00 | 0.00 | 0.00 | 1013.2 | |
| 20260510061704 | 60 | 153 | 1.0 | 2.0 | 0.00 | 0.01 | 0.00 | 94 | 1013.8 |
| 20260510061643 | 0 | 8 | 0.0 | 0.0 | 0.00 | 0.00 | 0.00 | 1013.4 | |
| 20260510061549 | 57 | 165 | 4.0 | 7.0 | 0.00 | 0.04 | 0.04 | 88 | 1008.6 |
| 20260510061204 | 60 | 190 | 0.0 | 2.0 | 0.00 | 0.01 | 0.00 | 94 | 1013.9 |
| 20260510061141 | 0 | 7 | 0.0 | 0.0 | 0.00 | 0.00 | 0.00 | 1013.6 | |
| 20260510060704 | 60 | 155 | 0.0 | 2.0 | 0.00 | 0.01 | 0.00 | 94 | 1014.0 |
| 20260510060637 | 67 | 10 | 0.0 | 0.0 | 0.00 | 0.00 | 0.00 | 99 | 1013.7 |
| 20260510060204 | 60 | 203 | 1.0 | 2.0 | 0.00 | 0.01 | 0.00 | 94 | 1013.9 |
| 20260510060134 | 67 | 11 | 0.0 | 0.0 | 0.00 | 0.00 | 0.00 | 99 | 1013.7 |
| 20260510060046 | 58 | 151 | 3.0 | 7.0 | 0.01 | 0.04 | 0.04 | 88 | 1008.7 |
| 20260510055704 | 60 | 236 | 0.0 | 2.0 | 0.00 | 0.01 | 0.00 | 94 | 1013.8 |
| 20260510055630 | 67 | 9 | 0.0 | 0.0 | 0.00 | 0.00 | 0.00 | 99 | 1013.7 |
| 20260510055203 | 60 | 206 | 1.0 | 2.0 | 0.00 | 0.01 | 0.00 | 94 | 1013.8 |
| 20260510055128 | 67 | 6 | 0.0 | 0.0 | 0.00 | 0.00 | 0.00 | 99 | 1013.6 |
| 20260510054623 | 67 | 9 | 0.0 | 0.0 | 0.00 | 0.00 | 0.00 | 99 | 1013.7 |
| 20260510054547 | 58 | 140 | 2.0 | 6.0 | 0.01 | 0.04 | 0.04 | 88 | 1008.4 |
| 20260510054203 | 60 | 46 | 0.0 | 0.0 | 0.00 | 0.01 | 0.00 | 94 | 1013.9 |
| 20260510054119 | 67 | 356 | 0.0 | 0.0 | 0.00 | 0.00 | 0.00 | 99 | 1013.9 |
| 20260510053703 | 60 | 217 | 0.0 | 1.0 | 0.00 | 0.01 | 0.00 | 94 | 1014.1 |
| 20260510053618 | 67 | 357 | 0.0 | 0.0 | 0.00 | 0.00 | 0.00 | 99 | 1013.9 |
| 20260510053204 | 60 | 229 | 0.0 | 1.0 | 0.00 | 0.01 | 0.00 | 94 | 1014.0 |
| 20260510053115 | 67 | 1 | 0.0 | 0.0 | 0.00 | 0.00 | 0.00 | 99 | 1014.0 |
| 20260510053047 | 59 | 148 | 3.0 | 8.0 | 0.01 | 0.04 | 0.04 | 87 | 1008.3 |
| 20260510052703 | 59 | 205 | 0.0 | 1.0 | 0.00 | 0.01 | 0.00 | 94 | 1014.1 |
| 20260510052611 | 67 | 353 | 0.0 | 0.0 | 0.00 | 0.00 | 0.00 | 99 | 1013.9 |
| 20260510052203 | 59 | 252 | 0.0 | 2.0 | 0.00 | 0.01 | 0.00 | 93 | 1014.0 |
| 20260510052108 | 67 | 6 | 0.0 | 0.0 | 0.00 | 0.00 | 0.00 | 99 | 1013.9 |
| 20260510051703 | 59 | 267 | 1.0 | 2.0 | 0.00 | 0.01 | 0.00 | 93 | 1014.1 |
| 20260510051603 | 67 | 337 | 0.0 | 0.0 | 0.00 | 0.00 | 0.00 | 99 | 1014.3 |
| 20260510051550 | 60 | 153 | 7.0 | 11.0 | 0.01 | 0.04 | 0.04 | 86 | 1008.3 |
| 20260510051203 | 59 | 237 | 0.0 | 2.0 | 0.00 | 0.01 | 0.00 | 93 | 1014.1 |
| 20260510051101 | 67 | 353 | 0.0 | 0.0 | 0.00 | 0.00 | 0.00 | 99 | 1014.1 |
| 20260510050703 | 59 | 251 | 0.0 | 2.0 | 0.00 | 0.01 | 0.00 | 93 | 1014.0 |
| 20260510050558 | 67 | 359 | 0.0 | 0.0 | 0.00 | 0.00 | 0.00 | 99 | 1014.1 |
| 20260510050204 | 59 | 229 | 1.0 | 1.0 | 0.00 | 0.01 | 0.00 | 93 | 1014.1 |
| 20260510050055 | 67 | 324 | 0.0 | 0.0 | 0.00 | 0.00 | 0.00 | 99 | 1013.8 |
| 20260510050049 | 59 | 156 | 4.0 | 9.0 | 0.00 | 0.03 | 0.03 | 86 | 1008.5 |
| 20260510045703 | 59 | 280 | 1.0 | 2.0 | 0.00 | 0.01 | 0.00 | 93 | 1014.0 |
| 20260510045552 | 67 | 270 | 0.0 | 0.0 | 0.00 | 0.62 | 0.62 | 99 | 1013.7 |
| 20260510045204 | 60 | 272 | 1.0 | 2.0 | 0.00 | 0.01 | 0.00 | 93 | 1013.9 |
| 20260510045048 | 67 | 34 | 0.0 | 0.0 | 0.00 | 0.62 | 0.62 | 99 | 1013.3 |
| 20260510044703 | 60 | 265 | 1.0 | 2.0 | 0.00 | 0.01 | 0.00 | 93 | 1014.1 |
| 20260510044544 | 67 | 68 | 1.0 | 1.0 | 0.00 | 0.62 | 0.62 | 99 | 1013.4 |
| 20260510044203 | 59 | 228 | 1.0 | 2.0 | 0.00 | 0.01 | 0.00 | 93 | 1013.9 |
| 20260510044042 | 67 | 84 | 1.0 | 1.0 | 0.00 | 0.62 | 0.62 | 99 | 1013.5 |
| 20260510043704 | 59 | 225 | 1.0 | 2.0 | 0.00 | 0.01 | 0.00 | 92 | 1013.9 |
| 20260510043537 | 67 | 33 | 0.0 | 0.0 | 0.00 | 0.62 | 0.62 | 99 | 1013.9 |
| 20260510043043 | 58 | 107 | 2.0 | 5.0 | 0.00 | 0.03 | 0.03 | 87 | 1008.5 |
| 20260510043033 | 67 | 25 | 0.0 | 0.0 | 0.00 | 0.62 | 0.62 | 99 | 1014.1 |
| 20260510042703 | 59 | 242 | 0.0 | 1.0 | 0.00 | 0.01 | 0.00 | 92 | 1013.9 |
| 20260510042527 | 67 | 26 | 0.0 | 0.0 | 0.00 | 0.62 | 0.62 | 99 | 1014.3 |
| 20260510042203 | 60 | 235 | 1.0 | 2.0 | 0.00 | 0.01 | 0.00 | 92 | 1013.8 |
| 20260510042022 | 67 | 10 | 0.0 | 0.0 | 0.00 | 0.62 | 0.62 | 99 | 1014.3 |
| 20260510041703 | 60 | 225 | 1.0 | 2.0 | 0.00 | 0.01 | 0.00 | 92 | 1013.9 |
| 20260510041541 | 58 | 97 | 2.0 | 3.0 | 0.00 | 0.03 | 0.03 | 86 | 1008.1 |
| 20260510041520 | 67 | 11 | 0.0 | 0.0 | 0.00 | 0.62 | 0.62 | 99 | 1014.3 |
| 20260510041203 | 60 | 245 | 0.0 | 1.0 | 0.00 | 0.01 | 0.00 | 91 | 1013.8 |
| 20260510041017 | 68 | 17 | 0.0 | 0.0 | 0.00 | 0.62 | 0.62 | 99 | 1014.3 |
| 20260510040704 | 60 | 283 | 0.0 | 1.0 | 0.00 | 0.01 | 0.00 | 91 | 1013.7 |
| 20260510040514 | 68 | 9 | 0.0 | 1.0 | 0.00 | 0.62 | 0.62 | 99 | 1014.5 |
| 20260510040204 | 60 | 262 | 1.0 | 2.0 | 0.00 | 0.01 | 0.00 | 91 | 1013.7 |
| 20260510040045 | 58 | 76 | 2.0 | 3.0 | 0.00 | 0.03 | 0.03 | 86 | 1008.0 |
| 20260510040009 | 68 | 22 | 0.0 | 0.0 | 0.00 | 0.62 | 0.62 | 99 | 1014.3 |
| 20260510035703 | 60 | 258 | 2.0 | 2.0 | 0.00 | 0.01 | 0.01 | 91 | 1013.8 |
| 20260510035507 | 68 | 53 | 0.0 | 0.0 | 0.00 | 0.62 | 0.62 | 99 | 1014.3 |
| 20260510035203 | 60 | 277 | 1.0 | 2.0 | 0.00 | 0.01 | 0.01 | 91 | 1013.6 |
| 20260510035005 | 68 | 36 | 0.0 | 0.0 | 0.00 | 0.62 | 0.62 | 99 | 1014.5 |
| 20260510034703 | 60 | 262 | 0.0 | 1.0 | 0.00 | 0.01 | 0.01 | 90 | 1013.7 |
| 20260510034547 | 59 | 107 | 2.0 | 4.0 | 0.00 | 0.03 | 0.03 | 85 | 1008.2 |
| 20260510034504 | 68 | 6 | 0.0 | 0.0 | 0.00 | 0.62 | 0.62 | 99 | 1014.6 |
| 20260510034203 | 60 | 200 | 0.0 | 2.0 | 0.00 | 0.01 | 0.01 | 90 | 1013.6 |
| 20260510034000 | 68 | 6 | 0.0 | 0.0 | 0.00 | 0.62 | 0.62 | 99 | 1014.5 |
| 20260510033456 | 68 | 6 | 0.0 | 0.0 | 0.00 | 0.62 | 0.62 | 99 | 1014.5 |
| 20260510033203 | 60 | 252 | 1.0 | 2.0 | 0.00 | 0.01 | 0.01 | 90 | 1013.5 |
| 20260510033037 | 59 | 77 | 2.0 | 6.0 | 0.00 | 0.03 | 0.03 | 84 | 1008.5 |
| 20260510032954 | 68 | 12 | 0.0 | 0.0 | 0.00 | 0.62 | 0.62 | 99 | 1014.4 |
| 20260510032703 | 60 | 270 | 1.0 | 2.0 | 0.00 | 0.01 | 0.01 | 89 | 1013.5 |
| 20260510032450 | 68 | 22 | 0.0 | 0.0 | 0.00 | 0.62 | 0.62 | 99 | 1014.5 |
| 20260510032204 | 61 | 274 | 1.0 | 1.0 | 0.00 | 0.01 | 0.01 | 89 | 1013.5 |
| 20260510031945 | 68 | 15 | 0.0 | 0.0 | 0.00 | 0.62 | 0.62 | 99 | 1014.4 |
| 20260510031535 | 59 | 53 | 5.0 | 8.0 | 0.00 | 0.03 | 0.03 | 83 | 1008.4 |
| 20260510031441 | 68 | 15 | 0.0 | 0.0 | 0.00 | 0.62 | 0.62 | 99 | 1014.2 |
| 20260510031204 | 61 | 247 | 0.0 | 2.0 | 0.00 | 0.01 | 0.01 | 88 | 1013.5 |
| 20260510030937 | 68 | 18 | 0.0 | 0.0 | 0.00 | 0.62 | 0.62 | 99 | 1014.1 |
| 20260510030704 | 61 | 248 | 1.0 | 2.0 | 0.00 | 0.01 | 0.01 | 88 | 1013.5 |
| 20260510030432 | 68 | 357 | 0.0 | 0.0 | 0.00 | 0.62 | 0.62 | 99 | 1014.1 |
| 20260510030204 | 61 | 248 | 1.0 | 2.0 | 0.00 | 0.01 | 0.01 | 88 | 1013.4 |
| 20260510030033 | 59 | 76 | 0.0 | 2.0 | 0.00 | 0.03 | 0.03 | 83 | 1008.6 |
| 20260510025930 | 68 | 0 | 0.0 | 0.0 | 0.00 | 0.62 | 0.62 | 99 | 1014.0 |
| 20260510025703 | 61 | 220 | 1.0 | 2.0 | 0.00 | 0.01 | 0.01 | 87 | 1013.3 |
| 20260510025427 | 68 | 2 | 0.0 | 0.0 | 0.00 | 0.62 | 0.62 | 99 | 1014.0 |
| 20260510024925 | 68 | 12 | 0.0 | 0.0 | 0.00 | 0.62 | 0.62 | 99 | 1014.0 |
| 20260510024703 | 62 | 226 | 0.0 | 1.0 | 0.00 | 0.01 | 0.01 | 87 | 1013.4 |
| 20260510024532 | 59 | 76 | 1.0 | 5.0 | 0.00 | 0.03 | 0.03 | 82 | 1008.8 |
| 20260510024421 | 68 | 16 | 0.0 | 0.0 | 0.00 | 0.62 | 0.62 | 99 | 1013.7 |
| 20260510024203 | 62 | 214 | 0.0 | 1.0 | 0.00 | 0.01 | 0.01 | 87 | 1013.4 |
| 20260510023917 | 68 | 70 | 0.0 | 0.0 | 0.00 | 0.62 | 0.62 | 99 | 1013.5 |
| 20260510023704 | 62 | 221 | 1.0 | 2.0 | 0.00 | 0.01 | 0.01 | 87 | 1013.4 |
| 20260510023413 | 68 | 29 | 0.0 | 0.0 | 0.07 | 0.62 | 0.62 | 99 | 1013.8 |
| 20260510023030 | 60 | 84 | 2.0 | 7.0 | 0.00 | 0.03 | 0.03 | 82 | 1009.0 |
| 20260510022911 | 68 | 6 | 0.0 | 0.0 | 0.07 | 0.62 | 0.62 | 99 | 1013.8 |
| 20260510022704 | 62 | 239 | 1.0 | 2.0 | 0.00 | 0.01 | 0.01 | 86 | 1013.4 |
| 20260510022410 | 68 | 33 | 0.0 | 0.0 | 0.00 | 0.61 | 0.61 | 99 | 1013.8 |
| 20260510022203 | 62 | 234 | 1.0 | 2.0 | 0.00 | 0.01 | 0.01 | 86 | 1013.5 |
| 20260510021909 | 68 | 18 | 0.0 | 0.0 | 0.00 | 0.61 | 0.61 | 99 | 1013.7 |
| 20260510021703 | 62 | 280 | 0.0 | 1.0 | 0.00 | 0.01 | 0.01 | 85 | 1013.3 |
| 20260510021532 | 59 | 74 | 3.0 | 4.0 | 0.00 | 0.03 | 0.03 | 83 | 1009.3 |
| 20260510021407 | 68 | 14 | 0.0 | 0.0 | 0.00 | 0.61 | 0.61 | 99 | 1013.9 |
| 20260510021203 | 62 | 220 | 1.0 | 1.0 | 0.00 | 0.01 | 0.01 | 85 | 1013.3 |
| 20260510020903 | 68 | 353 | 0.0 | 1.0 | 0.00 | 0.61 | 0.61 | 99 | 1013.9 |
| 20260510020704 | 63 | 225 | 0.0 | 2.0 | 0.00 | 0.01 | 0.01 | 84 | 1013.2 |
| 20260510020358 | 68 | 1 | 0.0 | 0.0 | 0.00 | 0.61 | 0.61 | 99 | 1013.7 |
| 20260510020203 | 63 | 225 | 0.0 | 1.0 | 0.00 | 0.01 | 0.01 | 84 | 1013.3 |
| 20260510020030 | 59 | 54 | 2.0 | 3.0 | 0.00 | 0.03 | 0.03 | 83 | 1009.3 |
| 20260510015854 | 68 | 20 | 0.0 | 1.0 | 0.00 | 0.61 | 0.61 | 99 | 1013.7 |
| 20260510015350 | 68 | 20 | 1.0 | 1.0 | 0.00 | 0.61 | 0.61 | 99 | 1013.6 |
| 20260510014845 | 68 | 17 | 0.0 | 1.0 | 0.00 | 0.61 | 0.61 | 99 | 1013.7 |
| 20260510014704 | 63 | 238 | 1.0 | 2.0 | 0.00 | 0.01 | 0.01 | 83 | 1013.3 |
| 20260510014527 | 59 | 72 | 1.0 | 4.0 | 0.00 | 0.03 | 0.03 | 83 | 1009.3 |
| 20260510014343 | 68 | 6 | 0.0 | 0.0 | 0.00 | 0.61 | 0.61 | 99 | 1013.6 |
| 20260510014204 | 64 | 269 | 1.0 | 2.0 | 0.00 | 0.01 | 0.01 | 83 | 1013.5 |
| 20260510013839 | 68 | 2 | 0.0 | 0.0 | 0.00 | 0.61 | 0.61 | 99 | 1013.8 |
| 20260510013335 | 68 | 13 | 0.0 | 0.0 | 0.00 | 0.61 | 0.61 | 99 | 1013.8 |
| 20260510013203 | 64 | 239 | 0.0 | 2.0 | 0.00 | 0.01 | 0.01 | 82 | 1013.4 |
| 20260510013024 | 59 | 71 | 3.0 | 4.0 | 0.00 | 0.03 | 0.03 | 83 | 1009.5 |
| 20260510012830 | 68 | 6 | 0.0 | 0.0 | 0.00 | 0.61 | 0.61 | 99 | 1013.9 |
| 20260510012704 | 64 | 154 | 0.0 | 1.0 | 0.00 | 0.01 | 0.01 | 81 | 1013.3 |
| 20260510012330 | 68 | 249 | 1.0 | 1.0 | 0.00 | 0.61 | 0.61 | 99 | 1013.9 |
| 20260510012204 | 64 | 219 | 0.0 | 2.0 | 0.00 | 0.01 | 0.01 | 81 | 1013.4 |
| 20260510011825 | 68 | 246 | 1.0 | 1.0 | 0.00 | 0.61 | 0.61 | 99 | 1014.1 |
| 20260510011703 | 65 | 267 | 1.0 | 1.0 | 0.00 | 0.01 | 0.01 | 81 | 1013.4 |
| 20260510011522 | 59 | 357 | 2.0 | 4.0 | 0.00 | 0.03 | 0.03 | 83 | 1009.9 |
| 20260510011320 | 68 | 353 | 0.0 | 0.0 | 0.00 | 0.61 | 0.61 | 99 | 1013.9 |
| 20260510011203 | 65 | 269 | 0.0 | 1.0 | 0.00 | 0.01 | 0.01 | 80 | 1013.3 |
| 20260510010817 | 68 | 12 | 0.0 | 0.0 | 0.00 | 0.61 | 0.61 | 99 | 1013.8 |
| 20260510010703 | 65 | 264 | 1.0 | 1.0 | 0.00 | 0.01 | 0.01 | 80 | 1013.2 |
| 20260510010315 | 68 | 30 | 0.0 | 0.0 | 0.00 | 0.61 | 0.61 | 99 | 1014.0 |
| 20260510010204 | 66 | 250 | 1.0 | 2.0 | 0.00 | 0.01 | 0.01 | 79 | 1013.1 |
| 20260510010020 | 60 | 14 | 1.0 | 8.0 | 0.00 | 0.03 | 0.03 | 81 | 1010.0 |
| 20260510005811 | 68 | 350 | 0.0 | 0.0 | 0.05 | 0.61 | 0.61 | 99 | 1014.2 |
| 20260510005307 | 68 | 351 | 0.0 | 0.0 | 0.05 | 0.61 | 0.61 | 99 | 1014.2 |
| 20260510005204 | 66 | 204 | 0.0 | 1.0 | 0.00 | 0.01 | 0.01 | 78 | 1012.7 |
| 20260510004805 | 68 | 336 | 0.0 | 0.0 | 0.00 | 0.60 | 0.60 | 99 | 1014.0 |
| 20260510004703 | 66 | 231 | 0.0 | 1.0 | 0.00 | 0.01 | 0.01 | 77 | 1012.7 |
| 20260510004520 | 61 | 40 | 3.0 | 7.0 | 0.00 | 0.03 | 0.03 | 80 | 1010.2 |
| 20260510004302 | 68 | 340 | 0.0 | 1.0 | 0.00 | 0.60 | 0.60 | 99 | 1014.0 |
| 20260510004204 | 67 | 256 | 0.0 | 1.0 | 0.00 | 0.01 | 0.01 | 76 | 1012.7 |
| 20260510003800 | 68 | 325 | 0.0 | 1.0 | 0.00 | 0.60 | 0.60 | 99 | 1013.7 |
| 20260510003704 | 67 | 280 | 1.0 | 1.0 | 0.00 | 0.01 | 0.01 | 76 | 1012.7 |
| 20260510003257 | 68 | 350 | 0.0 | 0.0 | 0.00 | 0.60 | 0.60 | 99 | 1013.4 |
| 20260510003203 | 67 | 239 | 1.0 | 2.0 | 0.00 | 0.01 | 0.01 | 75 | 1012.5 |
| 20260510003021 | 60 | 179 | 0.0 | 4.0 | 0.00 | 0.03 | 0.03 | 80 | 1010.3 |
| 20260510002755 | 68 | 8 | 0.0 | 0.0 | 0.00 | 0.60 | 0.60 | 99 | 1013.2 |
| 20260510002703 | 68 | 225 | 1.0 | 2.0 | 0.00 | 0.01 | 0.01 | 74 | 1012.6 |
| 20260510002253 | 68 | 6 | 0.0 | 0.0 | 0.00 | 0.60 | 0.60 | 99 | 1013.1 |
| 20260510002204 | 68 | 281 | 0.0 | 2.0 | 0.00 | 0.01 | 0.01 | 74 | 1012.7 |
| 20260510001749 | 68 | 27 | 0.0 | 0.0 | 0.00 | 0.60 | 0.60 | 99 | 1013.2 |
| 20260510001704 | 69 | 219 | 1.0 | 2.0 | 0.00 | 0.01 | 0.01 | 73 | 1012.6 |
| 20260510001517 | 60 | 174 | 0.0 | 5.0 | 0.00 | 0.03 | 0.03 | 82 | 1010.4 |
| 20260510001248 | 68 | 358 | 0.0 | 0.0 | 0.00 | 0.60 | 0.60 | 99 | 1013.1 |
| 20260510001204 | 69 | 199 | 1.0 | 2.0 | 0.00 | 0.01 | 0.01 | 72 | 1012.5 |
| 20260510000743 | 68 | 348 | 0.0 | 0.0 | 0.00 | 0.60 | 0.60 | 99 | 1013.2 |
| 20260510000704 | 70 | 195 | 1.0 | 2.0 | 0.00 | 0.01 | 0.01 | 71 | 1012.4 |
| 20260510000241 | 69 | 349 | 0.0 | 0.0 | 0.00 | 0.60 | 0.60 | 99 | 1012.8 |
| 20260510000204 | 71 | 199 | 0.0 | 2.0 | 0.00 | 0.01 | 0.01 | 67 | 1012.3 |
| 20260510000019 | 61 | 159 | 1.0 | 8.0 | 0.00 | 0.03 | 0.03 | 80 | 1010.2 |
| 20260509235737 | 69 | 346 | 1.0 | 1.0 | 0.00 | 0.60 | 0.60 | 99 | 1012.8 |
| 20260509235704 | 71 | 249 | 1.0 | 2.0 | 0.00 | 0.01 | 0.01 | 69 | 1012.4 |
| 20260509235234 | 69 | 359 | 0.0 | 1.0 | 0.00 | 0.60 | 0.60 | 99 | 1012.6 |
| 20260509235204 | 71 | 240 | 1.0 | 2.0 | 0.00 | 0.01 | 0.01 | 68 | 1012.1 |
| 20260509234730 | 69 | 16 | 1.0 | 1.0 | 0.07 | 0.60 | 0.60 | 99 | 1012.2 |
| 20260509234704 | 72 | 243 | 2.0 | 3.0 | 0.00 | 0.01 | 0.01 | 65 | 1012.2 |
| 20260509234516 | 61 | 84 | 4.0 | 10.0 | 0.00 | 0.03 | 0.03 | 80 | 1010.2 |
| 20260509234227 | 69 | 47 | 1.0 | 1.0 | 0.07 | 0.60 | 0.60 | 99 | 1012.0 |
| 20260509234204 | 72 | 225 | 2.0 | 5.0 | 0.00 | 0.01 | 0.01 | 64 | 1012.1 |
| 20260509233725 | 69 | 6 | 0.0 | 0.0 | 0.00 | 0.59 | 0.59 | 99 | 1012.2 |
| 20260509233704 | 72 | 19 | 1.0 | 3.0 | 0.00 | 0.01 | 0.01 | 64 | 1012.3 |
| 20260509233222 | 69 | 32 | 0.0 | 0.0 | 0.00 | 0.59 | 0.59 | 99 | 1012.6 |
| 20260509233203 | 73 | 347 | 2.0 | 3.0 | 0.00 | 0.01 | 0.01 | 64 | 1012.1 |
| 20260509233020 | 61 | 122 | 8.0 | 11.0 | 0.03 | 0.03 | 0.03 | 80 | 1010.1 |
| 20260509232718 | 69 | 10 | 0.0 | 0.0 | 0.00 | 0.59 | 0.59 | 99 | 1012.5 |
| 20260509232703 | 73 | 305 | 2.0 | 3.0 | 0.00 | 0.01 | 0.01 | 63 | 1012.1 |
| 20260509232216 | 69 | 22 | 0.0 | 0.0 | 0.00 | 0.59 | 0.59 | 99 | 1012.7 |
| 20260509232203 | 73 | 175 | 1.0 | 5.0 | 0.00 | 0.01 | 0.01 | 64 | 1011.9 |
| 20260509231712 | 68 | 136 | 1.0 | 1.0 | 0.00 | 0.59 | 0.59 | 99 | 1012.7 |
| 20260509231704 | 74 | 191 | 2.0 | 3.0 | 0.00 | 0.01 | 0.01 | 63 | 1012.0 |
| 20260509231514 | 60 | 99 | 6.0 | 11.0 | 0.03 | 0.03 | 0.03 | 81 | 1010.2 |
| 20260509231209 | 69 | 11 | 0.0 | 0.0 | 0.00 | 0.59 | 0.59 | 99 | 1012.9 |
| 20260509231204 | 74 | 306 | 1.0 | 2.0 | 0.00 | 0.01 | 0.01 | 64 | 1012.1 |
| 20260509230707 | 69 | 7 | 0.0 | 0.0 | 0.00 | 0.59 | 0.59 | 99 | 1012.8 |
| 20260509230703 | 74 | 128 | 1.0 | 3.0 | 0.00 | 0.01 | 0.01 | 61 | 1012.1 |
| 20260509230203 | 69 | 136 | 1.0 | 1.0 | 0.05 | 0.59 | 0.59 | 99 | 1012.9 |
| 20260509230014 | 60 | 96 | 8.0 | 14.0 | 0.03 | 0.03 | 0.03 | 82 | 1010.4 |
| 20260509225659 | 69 | 354 | 0.0 | 0.0 | 0.05 | 0.59 | 0.59 | 99 | 1013.3 |
| 20260509225203 | 75 | 265 | 1.0 | 5.0 | 0.00 | 0.01 | 0.01 | 61 | 1012.1 |
| 20260509225155 | 69 | 9 | 0.0 | 0.0 | 0.00 | 0.58 | 0.58 | 99 | 1013.3 |
| 20260509224703 | 76 | 261 | 2.0 | 5.0 | 0.00 | 0.01 | 0.01 | 59 | 1012.1 |
| 20260509224651 | 69 | 10 | 0.0 | 0.0 | 0.00 | 0.58 | 0.58 | 99 | 1013.2 |
| 20260509224512 | 61 | 85 | 8.0 | 16.0 | 0.03 | 0.03 | 0.03 | 82 | 1010.3 |
| 20260509224204 | 75 | 270 | 3.0 | 6.0 | 0.00 | 0.01 | 0.01 | 57 | 1012.1 |
| 20260509224148 | 69 | 342 | 0.0 | 0.0 | 0.00 | 0.58 | 0.58 | 99 | 1013.2 |
| 20260509223703 | 75 | 328 | 3.0 | 8.0 | 0.00 | 0.01 | 0.01 | 57 | 1012.1 |
| 20260509223644 | 69 | 334 | 1.0 | 1.0 | 0.00 | 0.58 | 0.58 | 99 | 1013.1 |
| 20260509223203 | 75 | 287 | 3.0 | 9.0 | 0.00 | 0.01 | 0.01 | 57 | 1012.0 |
| 20260509223142 | 69 | 358 | 0.0 | 0.0 | 0.00 | 0.58 | 0.58 | 99 | 1012.9 |
| 20260509223009 | 63 | 109 | 10.0 | 18.0 | 0.00 | 0.00 | 0.00 | 78 | 1010.8 |
| 20260509222703 | 75 | 334 | 1.0 | 6.0 | 0.00 | 0.01 | 0.01 | 60 | 1012.3 |
| 20260509222639 | 69 | 335 | 0.0 | 0.0 | 0.00 | 0.58 | 0.58 | 99 | 1013.1 |
| 20260509222204 | 75 | 287 | 2.0 | 5.0 | 0.00 | 0.01 | 0.01 | 58 | 1012.1 |
| 20260509222134 | 69 | 338 | 0.0 | 0.0 | 0.00 | 0.58 | 0.58 | 99 | 1013.0 |
| 20260509221704 | 75 | 98 | 1.0 | 5.0 | 0.00 | 0.01 | 0.01 | 59 | 1012.1 |
| 20260509221630 | 69 | 348 | 0.0 | 1.0 | 0.00 | 0.58 | 0.58 | 99 | 1012.7 |
| 20260509221506 | 62 | 103 | 12.0 | 20.0 | 0.00 | 0.00 | 0.00 | 87 | 1010.9 |
| 20260509221204 | 75 | 254 | 1.0 | 7.0 | 0.00 | 0.01 | 0.01 | 57 | 1012.0 |
| 20260509221126 | 69 | 17 | 0.0 | 0.0 | 0.07 | 0.58 | 0.58 | 99 | 1012.7 |
| 20260509220703 | 75 | 174 | 2.0 | 6.0 | 0.00 | 0.01 | 0.01 | 58 | 1012.0 |
| 20260509220621 | 69 | 10 | 0.0 | 1.0 | 0.07 | 0.58 | 0.58 | 99 | 1012.8 |
| 20260509220203 | 75 | 287 | 2.0 | 7.0 | 0.00 | 0.01 | 0.01 | 55 | 1012.0 |
| 20260509220113 | 70 | 127 | 1.0 | 1.0 | 0.00 | 0.57 | 0.57 | 99 | 1012.7 |
| 20260509220002 | 61 | 48 | 3.0 | 5.0 | 0.00 | 0.00 | 0.00 | 87 | 1010.4 |
| 20260509215704 | 76 | 316 | 4.0 | 7.0 | 0.00 | 0.01 | 0.01 | 55 | 1012.1 |
| 20260509215609 | 70 | 16 | 0.0 | 0.0 | 0.00 | 0.57 | 0.57 | 99 | 1012.9 |
| 20260509215203 | 76 | 246 | 1.0 | 5.0 | 0.00 | 0.01 | 0.01 | 56 | 1012.0 |
| 20260509215106 | 70 | 5 | 0.0 | 0.0 | 0.00 | 0.57 | 0.57 | 99 | 1012.9 |
| 20260509214603 | 70 | 346 | 0.0 | 0.0 | 0.00 | 0.57 | 0.57 | 99 | 1012.8 |
| 20260509214502 | 61 | 18 | 3.0 | 4.0 | 0.00 | 0.00 | 0.00 | 86 | 1010.1 |
| 20260509214204 | 76 | 262 | 3.0 | 7.0 | 0.00 | 0.01 | 0.01 | 54 | 1011.7 |
| 20260509214059 | 70 | 317 | 1.0 | 1.0 | 0.00 | 0.57 | 0.57 | 99 | 1012.6 |
| 20260509213555 | 70 | 347 | 1.0 | 1.0 | 0.00 | 0.57 | 0.57 | 98 | 1012.8 |
| 20260509213204 | 76 | 318 | 3.0 | 7.0 | 0.00 | 0.01 | 0.01 | 53 | 1011.7 |
| 20260509213052 | 70 | 1 | 0.0 | 0.0 | 0.00 | 0.57 | 0.57 | 98 | 1012.3 |
| 20260509213002 | 61 | 5 | 1.0 | 3.0 | 0.00 | 0.00 | 0.00 | 86 | 1010.0 |
| 20260509212703 | 76 | 321 | 4.0 | 7.0 | 0.00 | 0.01 | 0.01 | 52 | 1011.7 |
| 20260509212550 | 70 | 320 | 0.0 | 0.0 | 0.00 | 0.57 | 0.57 | 98 | 1012.6 |
| 20260509212203 | 76 | 306 | 3.0 | 6.0 | 0.00 | 0.01 | 0.01 | 52 | 1011.7 |
| 20260509212046 | 70 | 33 | 0.0 | 0.0 | 0.00 | 0.57 | 0.57 | 98 | 1012.5 |
| 20260509211703 | 77 | 257 | 2.0 | 7.0 | 0.00 | 0.01 | 0.01 | 52 | 1011.7 |
| 20260509211607 | 61 | 5 | 1.0 | 4.0 | 0.00 | 0.00 | 0.00 | 86 | 1010.0 |
| 20260509211542 | 69 | 42 | 0.0 | 0.0 | 0.00 | 0.57 | 0.57 | 98 | 1012.7 |
| 20260509211204 | 78 | 271 | 2.0 | 5.0 | 0.00 | 0.01 | 0.01 | 50 | 1011.8 |
| 20260509211039 | 70 | 306 | 0.0 | 0.0 | 0.00 | 0.57 | 0.57 | 99 | 1012.5 |
| 20260509210536 | 69 | 359 | 0.0 | 0.0 | 0.00 | 0.57 | 0.57 | 98 | 1012.8 |
| 20260509210203 | 77 | 265 | 3.0 | 10.0 | 0.00 | 0.01 | 0.01 | 51 | 1011.7 |
| 20260509210101 | 61 | 7 | 2.0 | 5.0 | 0.00 | 0.00 | 0.00 | 86 | 1010.0 |
| 20260509210032 | 70 | 347 | 1.0 | 2.0 | 0.00 | 0.57 | 0.57 | 99 | 1012.9 |
| 20260509205704 | 78 | 275 | 6.0 | 13.0 | 0.00 | 0.01 | 0.01 | 50 | 1011.7 |
| 20260509205526 | 70 | 18 | 0.0 | 0.0 | 0.00 | 0.57 | 0.57 | 99 | 1013.1 |
| 20260509205203 | 80 | 265 | 4.0 | 7.0 | 0.00 | 0.01 | 0.01 | 50 | 1011.8 |
| 20260509205022 | 70 | 232 | 1.0 | 1.0 | 0.00 | 0.57 | 0.57 | 99 | 1012.9 |
| 20260509204704 | 79 | 187 | 1.0 | 9.0 | 0.00 | 0.01 | 0.01 | 50 | 1011.8 |
| 20260509204603 | 61 | 350 | 1.0 | 2.0 | 0.00 | 0.00 | 0.00 | 86 | 1010.3 |
| 20260509204518 | 70 | 309 | 1.0 | 1.0 | 0.00 | 0.57 | 0.57 | 98 | 1012.7 |
| 20260509204203 | 78 | 314 | 4.0 | 9.0 | 0.00 | 0.01 | 0.01 | 51 | 1011.9 |
| 20260509204015 | 70 | 342 | 1.0 | 1.0 | 0.00 | 0.57 | 0.57 | 98 | 1012.8 |
| 20260509203704 | 78 | 243 | 4.0 | 8.0 | 0.00 | 0.01 | 0.01 | 51 | 1011.8 |
| 20260509203511 | 70 | 313 | 1.0 | 1.0 | 0.00 | 0.57 | 0.57 | 97 | 1012.6 |
| 20260509203204 | 77 | 321 | 2.0 | 13.0 | 0.00 | 0.01 | 0.01 | 52 | 1011.8 |
| 20260509203100 | 62 | 350 | 1.0 | 3.0 | 0.00 | 0.00 | 0.00 | 86 | 1010.4 |
| 20260509203009 | 70 | 23 | 0.0 | 0.0 | 0.00 | 0.57 | 0.57 | 97 | 1012.5 |
| 20260509202704 | 77 | 295 | 7.0 | 14.0 | 0.00 | 0.01 | 0.01 | 50 | 1011.5 |
| 20260509202503 | 70 | 354 | 1.0 | 1.0 | 0.00 | 0.57 | 0.57 | 98 | 1012.5 |
| 20260509202204 | 78 | 240 | 4.0 | 13.0 | 0.00 | 0.01 | 0.01 | 50 | 1011.8 |
| 20260509201959 | 70 | 300 | 1.0 | 1.0 | 0.00 | 0.57 | 0.57 | 96 | 1012.1 |
| 20260509201703 | 79 | 298 | 4.0 | 8.0 | 0.00 | 0.01 | 0.01 | 49 | 1011.6 |
| 20260509201558 | 62 | 350 | 1.0 | 3.0 | 0.00 | 0.00 | 0.00 | 86 | 1010.3 |
| 20260509201454 | 70 | 321 | 0.0 | 0.0 | 0.00 | 0.57 | 0.57 | 98 | 1012.4 |
| 20260509201203 | 78 | 261 | 5.0 | 10.0 | 0.00 | 0.01 | 0.01 | 50 | 1011.7 |
| 20260509200952 | 70 | 24 | 1.0 | 1.0 | 0.00 | 0.57 | 0.57 | 98 | 1012.0 |
| 20260509200704 | 78 | 233 | 4.0 | 13.0 | 0.00 | 0.01 | 0.01 | 50 | 1011.4 |
| 20260509200446 | 70 | 340 | 1.0 | 1.0 | 0.00 | 0.57 | 0.57 | 96 | 1011.7 |
| 20260509200204 | 78 | 275 | 4.0 | 13.0 | 0.00 | 0.01 | 0.01 | 50 | 1011.5 |
| 20260509200110 | 63 | 351 | 2.0 | 6.0 | 0.00 | 0.00 | 0.00 | 86 | 1010.1 |
| 20260509195943 | 70 | 7 | 0.0 | 0.0 | 0.00 | 0.57 | 0.57 | 97 | 1011.5 |
| 20260509195703 | 77 | 298 | 5.0 | 10.0 | 0.00 | 0.01 | 0.01 | 50 | 1011.6 |
| 20260509195439 | 71 | 322 | 1.0 | 5.0 | 0.00 | 0.57 | 0.57 | 95 | 1010.4 |
| 20260509195203 | 77 | 281 | 6.0 | 14.0 | 0.00 | 0.01 | 0.01 | 50 | 1011.6 |
| 20260509194938 | 71 | 59 | 1.0 | 1.0 | 0.00 | 0.57 | 0.57 | 95 | 1010.3 |
| 20260509194704 | 77 | 246 | 5.0 | 14.0 | 0.00 | 0.01 | 0.01 | 51 | 1011.6 |
| 20260509194559 | 63 | 329 | 4.0 | 6.0 | 0.00 | 0.00 | 0.00 | 86 | 1010.0 |
| 20260509194434 | 71 | 162 | 1.0 | 1.0 | 0.00 | 0.57 | 0.57 | 94 | 1010.5 |
| 20260509193931 | 72 | 62 | 1.0 | 1.0 | 0.00 | 0.57 | 0.57 | 92 | 1011.1 |
| 20260509193704 | 77 | 252 | 5.0 | 12.0 | 0.00 | 0.01 | 0.01 | 48 | 1012.0 |
| 20260509193431 | 71 | 5 | 0.0 | 0.0 | 0.00 | 0.57 | 0.57 | 95 | 1011.5 |
| 20260509193204 | 77 | 283 | 6.0 | 13.0 | 0.00 | 0.01 | 0.01 | 51 | 1011.9 |
| 20260509193102 | 63 | 313 | 3.0 | 6.0 | 0.00 | 0.00 | 0.00 | 85 | 1010.2 |
| 20260509192927 | 72 | 13 | 0.0 | 0.0 | 0.00 | 0.57 | 0.57 | 91 | 1011.0 |
| 20260509192704 | 77 | 278 | 7.0 | 14.0 | 0.00 | 0.01 | 0.01 | 49 | 1012.0 |
| 20260509192424 | 72 | 341 | 0.0 | 1.0 | 0.00 | 0.57 | 0.57 | 90 | 1011.3 |
| 20260509192203 | 77 | 273 | 6.0 | 14.0 | 0.00 | 0.01 | 0.01 | 49 | 1012.1 |
| 20260509191919 | 73 | 286 | 1.0 | 1.0 | 0.00 | 0.57 | 0.57 | 90 | 1010.8 |
| 20260509191559 | 64 | 311 | 1.0 | 5.0 | 0.00 | 0.00 | 0.00 | 84 | 1010.1 |
| 20260509191414 | 73 | 329 | 0.0 | 0.0 | 0.00 | 0.57 | 0.57 | 92 | 1011.0 |
| 20260509191204 | 77 | 252 | 7.0 | 13.0 | 0.00 | 0.01 | 0.01 | 49 | 1012.2 |
| 20260509190911 | 72 | 356 | 0.0 | 0.0 | 0.00 | 0.57 | 0.57 | 92 | 1010.8 |
| 20260509190704 | 76 | 277 | 5.0 | 15.0 | 0.00 | 0.01 | 0.01 | 51 | 1012.2 |
| 20260509190408 | 72 | 268 | 1.0 | 2.0 | 0.00 | 0.57 | 0.57 | 92 | 1010.7 |
| 20260509190204 | 76 | 277 | 7.0 | 13.0 | 0.00 | 0.01 | 0.01 | 51 | 1012.5 |
| 20260509190058 | 64 | 277 | 2.0 | 3.0 | 0.00 | 0.00 | 0.00 | 82 | 1010.2 |
| 20260509185906 | 71 | 1 | 0.0 | 0.0 | 0.00 | 0.57 | 0.57 | 93 | 1010.5 |
| 20260509185704 | 76 | 43 | 5.0 | 12.0 | 0.00 | 0.01 | 0.01 | 51 | 1012.4 |
| 20260509185403 | 72 | 288 | 0.0 | 1.0 | 0.00 | 0.57 | 0.57 | 93 | 1010.3 |
| 20260509184859 | 72 | 1 | 0.0 | 0.0 | 0.00 | 0.57 | 0.57 | 93 | 1010.2 |
| 20260509184704 | 77 | 200 | 3.0 | 7.0 | 0.00 | 0.01 | 0.01 | 49 | 1012.5 |
| 20260509184556 | 65 | 315 | 2.0 | 4.0 | 0.00 | 0.00 | 0.00 | 81 | 1010.0 |
| 20260509184356 | 73 | 4 | 1.0 | 1.0 | 0.00 | 0.57 | 0.57 | 93 | 1010.5 |
| 20260509184204 | 76 | 247 | 3.0 | 18.0 | 0.00 | 0.01 | 0.01 | 51 | 1012.6 |
| 20260509183854 | 74 | 30 | 1.0 | 1.0 | 0.00 | 0.57 | 0.57 | 90 | 1010.4 |
| 20260509183704 | 76 | 271 | 5.0 | 17.0 | 0.00 | 0.01 | 0.01 | 50 | 1012.6 |
| 20260509183348 | 75 | 166 | 1.0 | 2.0 | 0.00 | 0.57 | 0.57 | 89 | 1010.6 |
| 20260509183204 | 75 | 283 | 7.0 | 15.0 | 0.00 | 0.01 | 0.01 | 52 | 1012.4 |
| 20260509183105 | 65 | 300 | 1.0 | 4.0 | 0.00 | 0.00 | 0.00 | 80 | 1010.0 |
| 20260509182844 | 75 | 57 | 1.0 | 1.0 | 0.00 | 0.57 | 0.57 | 89 | 1011.1 |
| 20260509182703 | 75 | 292 | 7.0 | 13.0 | 0.00 | 0.01 | 0.01 | 52 | 1012.5 |
| 20260509182341 | 73 | 22 | 0.0 | 1.0 | 0.00 | 0.57 | 0.57 | 92 | 1011.4 |
| 20260509182203 | 75 | 306 | 6.0 | 14.0 | 0.00 | 0.01 | 0.01 | 50 | 1012.6 |
| 20260509181839 | 73 | 3 | 1.0 | 2.0 | 0.00 | 0.57 | 0.57 | 93 | 1011.8 |
| 20260509181704 | 76 | 290 | 5.0 | 13.0 | 0.00 | 0.01 | 0.01 | 52 | 1012.4 |
| 20260509181555 | 66 | 292 | 2.0 | 4.0 | 0.00 | 0.00 | 0.00 | 79 | 1009.9 |
| 20260509181336 | 71 | 194 | 1.0 | 1.0 | 0.00 | 0.57 | 0.57 | 96 | 1012.1 |
| 20260509181204 | 75 | 272 | 6.0 | 16.0 | 0.00 | 0.01 | 0.01 | 52 | 1012.6 |
| 20260509180833 | 71 | 81 | 0.0 | 1.0 | 0.00 | 0.57 | 0.57 | 97 | 1012.3 |
| 20260509180329 | 69 | 150 | 0.0 | 1.0 | 0.00 | 0.57 | 0.57 | 99 | 1012.7 |
| 20260509180204 | 75 | 254 | 6.0 | 10.0 | 0.00 | 0.01 | 0.01 | 52 | 1012.4 |
| 20260509180055 | 66 | 305 | 3.0 | 5.0 | 0.00 | 0.00 | 0.00 | 77 | 1009.7 |
| 20260509175826 | 69 | 19 | 0.0 | 0.0 | 0.00 | 0.57 | 0.57 | 99 | 1012.7 |
| 20260509175704 | 75 | 303 | 5.0 | 15.0 | 0.00 | 0.01 | 0.01 | 52 | 1012.4 |
| 20260509175322 | 67 | 127 | 2.0 | 2.0 | 0.00 | 0.57 | 0.57 | 99 | 1012.9 |
| 20260509175203 | 76 | 239 | 7.0 | 14.0 | 0.00 | 0.01 | 0.01 | 50 | 1012.9 |
| 20260509174818 | 67 | 96 | 1.0 | 2.0 | 0.00 | 0.57 | 0.57 | 99 | 1013.1 |
| 20260509174704 | 76 | 291 | 3.0 | 12.0 | 0.00 | 0.01 | 0.01 | 54 | 1012.8 |
| 20260509174556 | 67 | 318 | 4.0 | 6.0 | 0.00 | 0.00 | 0.00 | 75 | 1009.6 |
| 20260509174314 | 67 | 100 | 0.0 | 1.0 | 0.00 | 0.57 | 0.57 | 99 | 1013.0 |
| 20260509174204 | 75 | 208 | 4.0 | 13.0 | 0.00 | 0.01 | 0.01 | 54 | 1012.8 |
| 20260509173810 | 66 | 71 | 2.0 | 2.0 | 0.00 | 0.57 | 0.57 | 99 | 1013.4 |
| 20260509173703 | 75 | 306 | 6.0 | 12.0 | 0.00 | 0.01 | 0.01 | 53 | 1013.0 |
| 20260509173306 | 66 | 49 | 0.0 | 0.0 | 0.00 | 0.57 | 0.57 | 99 | 1013.7 |
| 20260509173204 | 76 | 255 | 3.0 | 10.0 | 0.00 | 0.01 | 0.01 | 55 | 1013.0 |
| 20260509173059 | 67 | 307 | 4.0 | 6.0 | 0.00 | 0.00 | 0.00 | 74 | 1009.5 |
| 20260509172802 | 66 | 104 | 0.0 | 1.0 | 0.00 | 0.57 | 0.57 | 99 | 1014.0 |
| 20260509172703 | 76 | 302 | 5.0 | 21.0 | 0.00 | 0.01 | 0.01 | 57 | 1013.0 |
| 20260509172259 | 66 | 91 | 2.0 | 2.0 | 0.00 | 0.57 | 0.57 | 99 | 1014.2 |
| 20260509172203 | 75 | 260 | 5.0 | 15.0 | 0.00 | 0.01 | 0.01 | 59 | 1013.2 |
| 20260509171755 | 66 | 48 | 0.0 | 1.0 | 0.00 | 0.57 | 0.57 | 99 | 1014.4 |
| 20260509171703 | 75 | 259 | 8.0 | 15.0 | 0.00 | 0.01 | 0.01 | 56 | 1013.1 |
| 20260509171554 | 68 | 307 | 5.0 | 8.0 | 0.00 | 0.00 | 0.00 | 73 | 1009.4 |
| 20260509171251 | 66 | 21 | 0.0 | 0.0 | 0.00 | 0.57 | 0.57 | 99 | 1014.9 |
| 20260509170747 | 66 | 28 | 1.0 | 1.0 | 0.00 | 0.57 | 0.57 | 99 | 1014.9 |
| 20260509170704 | 75 | 306 | 7.0 | 12.0 | 0.00 | 0.01 | 0.01 | 61 | 1013.0 |
| 20260509170243 | 65 | 14 | 0.0 | 0.0 | 0.00 | 0.57 | 0.57 | 99 | 1015.1 |
| 20260509170203 | 75 | 316 | 4.0 | 10.0 | 0.00 | 0.01 | 0.01 | 63 | 1013.0 |
| 20260509170053 | 69 | 302 | 4.0 | 9.0 | 0.00 | 0.00 | 0.00 | 71 | 1009.6 |
| 20260509165742 | 66 | 19 | 0.0 | 0.0 | 0.00 | 0.57 | 0.57 | 99 | 1015.4 |
| 20260509165704 | 74 | 88 | 4.0 | 8.0 | 0.00 | 0.01 | 0.01 | 64 | 1012.9 |
| 20260509165237 | 66 | 89 | 0.0 | 0.0 | 0.00 | 0.57 | 0.57 | 99 | 1015.6 |
| 20260509165204 | 74 | 273 | 4.0 | 10.0 | 0.00 | 0.01 | 0.01 | 65 | 1013.1 |
| 20260509164734 | 66 | 17 | 0.0 | 0.0 | 0.00 | 0.57 | 0.57 | 99 | 1015.6 |
| 20260509164704 | 74 | 208 | 4.0 | 13.0 | 0.00 | 0.01 | 0.01 | 66 | 1013.2 |
| 20260509164554 | 71 | 324 | 6.0 | 9.0 | 0.00 | 0.00 | 0.00 | 64 | 1009.6 |
| 20260509164229 | 65 | 80 | 0.0 | 0.0 | 0.00 | 0.57 | 0.57 | 99 | 1015.5 |
| 20260509164204 | 74 | 163 | 5.0 | 10.0 | 0.00 | 0.01 | 0.01 | 66 | 1013.2 |
| 20260509163727 | 65 | 15 | 0.0 | 1.0 | 0.00 | 0.57 | 0.57 | 99 | 1015.5 |
| 20260509163223 | 65 | 2 | 0.0 | 0.0 | 0.00 | 0.57 | 0.57 | 99 | 1015.7 |
| 20260509163100 | 74 | 346 | 3.0 | 8.0 | 0.00 | 0.00 | 0.00 | 63 | 1009.6 |
| 20260509162721 | 65 | 337 | 1.0 | 2.0 | 0.00 | 0.57 | 0.57 | 99 | 1015.5 |
| 20260509162703 | 73 | 294 | 5.0 | 9.0 | 0.00 | 0.01 | 0.01 | 70 | 1013.4 |
| 20260509162216 | 65 | 54 | 0.0 | 1.0 | 0.00 | 0.57 | 0.57 | 99 | 1015.4 |
| 20260509162204 | 73 | 84 | 3.0 | 7.0 | 0.00 | 0.01 | 0.01 | 69 | 1013.6 |
| 20260509161712 | 65 | 119 | 1.0 | 2.0 | 0.00 | 0.57 | 0.57 | 99 | 1015.6 |
| 20260509161704 | 73 | 287 | 6.0 | 10.0 | 0.00 | 0.01 | 0.01 | 69 | 1013.9 |
| 20260509161551 | 74 | 329 | 0.0 | 10.0 | 0.00 | 0.00 | 0.00 | 61 | 1009.6 |
| 20260509161208 | 65 | 22 | 1.0 | 1.0 | 0.12 | 0.57 | 0.57 | 99 | 1015.6 |
| 20260509160703 | 71 | 247 | 4.0 | 9.0 | 0.00 | 0.01 | 0.01 | 74 | 1013.9 |
| 20260509160200 | 65 | 14 | 0.0 | 0.0 | 0.24 | 0.55 | 0.55 | 99 | 1016.0 |
| 20260509160052 | 75 | 7 | 1.0 | 3.0 | 0.00 | 0.00 | 0.00 | 61 | 1009.6 |
| 20260509155704 | 72 | 206 | 3.0 | 8.0 | 0.00 | 0.01 | 0.01 | 74 | 1014.0 |
| 20260509155655 | 65 | 76 | 0.0 | 1.0 | 0.19 | 0.53 | 0.53 | 99 | 1015.8 |
| 20260509155204 | 72 | 272 | 3.0 | 6.0 | 0.00 | 0.01 | 0.01 | 75 | 1014.1 |
| 20260509155152 | 65 | 358 | 0.0 | 0.0 | 0.12 | 0.51 | 0.51 | 99 | 1015.7 |
| 20260509154704 | 71 | 126 | 2.0 | 5.0 | 0.00 | 0.01 | 0.01 | 77 | 1014.1 |
| 20260509154648 | 64 | 52 | 0.0 | 0.0 | 0.12 | 0.50 | 0.50 | 99 | 1015.5 |
| 20260509154550 | 74 | 261 | 1.0 | 5.0 | 0.00 | 0.00 | 0.00 | 63 | 1009.7 |
| 20260509154204 | 71 | 312 | 2.0 | 9.0 | 0.00 | 0.01 | 0.01 | 77 | 1014.3 |
| 20260509154145 | 65 | 32 | 0.0 | 1.0 | 0.12 | 0.49 | 0.49 | 99 | 1015.2 |
| 20260509153704 | 71 | 246 | 2.0 | 7.0 | 0.00 | 0.01 | 0.01 | 76 | 1014.5 |
| 20260509153642 | 64 | 139 | 1.0 | 2.0 | 0.12 | 0.48 | 0.48 | 99 | 1015.1 |
| 20260509153204 | 71 | 193 | 5.0 | 13.0 | 0.00 | 0.01 | 0.01 | 76 | 1014.8 |
| 20260509153139 | 64 | 108 | 1.0 | 1.0 | 0.12 | 0.47 | 0.47 | 99 | 1015.3 |
| 20260509153053 | 74 | 283 | 3.0 | 5.0 | 0.00 | 0.00 | 0.00 | 62 | 1009.7 |
| 20260509152704 | 72 | 239 | 3.0 | 7.0 | 0.00 | 0.01 | 0.01 | 76 | 1014.9 |
| 20260509152634 | 65 | 335 | 0.0 | 0.0 | 0.05 | 0.46 | 0.46 | 99 | 1015.5 |
| 20260509152203 | 71 | 358 | 3.0 | 12.0 | 0.00 | 0.01 | 0.01 | 76 | 1015.0 |
| 20260509152132 | 64 | 78 | 1.0 | 1.0 | 0.12 | 0.45 | 0.45 | 99 | 1015.5 |
| 20260509151704 | 71 | 255 | 3.0 | 8.0 | 0.00 | 0.01 | 0.01 | 76 | 1015.2 |
| 20260509151628 | 64 | 358 | 0.0 | 0.0 | 0.19 | 0.45 | 0.45 | 99 | 1015.4 |
| 20260509151546 | 75 | 324 | 0.0 | 5.0 | 0.00 | 0.00 | 0.00 | 61 | 1009.9 |
| 20260509151204 | 71 | 240 | 3.0 | 10.0 | 0.00 | 0.01 | 0.01 | 76 | 1015.4 |
| 20260509151126 | 64 | 275 | 1.0 | 1.0 | 0.14 | 0.43 | 0.43 | 99 | 1015.4 |
| 20260509150704 | 71 | 308 | 6.0 | 10.0 | 0.00 | 0.01 | 0.01 | 76 | 1015.3 |
| 20260509150624 | 65 | 226 | 4.0 | 6.0 | 0.12 | 0.42 | 0.42 | 99 | 1015.0 |
| 20260509150204 | 71 | 271 | 3.0 | 12.0 | 0.00 | 0.01 | 0.01 | 77 | 1015.5 |
| 20260509150122 | 65 | 344 | 1.0 | 2.0 | 0.12 | 0.41 | 0.41 | 99 | 1015.0 |
| 20260509150045 | 75 | 250 | 1.0 | 4.0 | 0.00 | 0.00 | 0.00 | 59 | 1010.3 |
| 20260509145704 | 70 | 299 | 5.0 | 12.0 | 0.00 | 0.01 | 0.01 | 77 | 1015.5 |
| 20260509145617 | 65 | 41 | 1.0 | 1.0 | 0.19 | 0.40 | 0.40 | 99 | 1014.9 |
| 20260509145204 | 71 | 312 | 5.0 | 10.0 | 0.00 | 0.01 | 0.01 | 77 | 1015.8 |
| 20260509145113 | 65 | 36 | 2.0 | 3.0 | 0.35 | 0.40 | 0.40 | 99 | 1014.8 |
| 20260509144704 | 70 | 179 | 5.0 | 10.0 | 0.00 | 0.01 | 0.01 | 77 | 1015.7 |
| 20260509144610 | 66 | 60 | 4.0 | 5.0 | 1.18 | 0.37 | 0.37 | 99 | 1014.6 |
| 20260509144543 | 76 | 246 | 2.0 | 4.0 | 0.00 | 0.00 | 0.00 | 61 | 1010.4 |
| 20260509144107 | 66 | 45 | 3.0 | 5.0 | 1.37 | 0.33 | 0.33 | 99 | 1014.6 |
| 20260509143703 | 70 | 150 | 3.0 | 6.0 | 0.00 | 0.01 | 0.01 | 78 | 1015.6 |
| 20260509143604 | 67 | 317 | 2.0 | 2.0 | 0.47 | 0.18 | 0.18 | 99 | 1014.6 |
| 20260509143203 | 70 | 287 | 3.0 | 8.0 | 0.00 | 0.01 | 0.01 | 78 | 1015.5 |
| 20260509143101 | 67 | 57 | 3.0 | 6.0 | 0.05 | 0.11 | 0.11 | 99 | 1013.9 |
| 20260509143049 | 74 | 211 | 1.0 | 5.0 | 0.00 | 0.00 | 0.00 | 61 | 1010.7 |
| 20260509142703 | 69 | 257 | 3.0 | 8.0 | 0.00 | 0.01 | 0.01 | 80 | 1015.5 |
| 20260509142556 | 67 | 28 | 1.0 | 1.0 | 0.07 | 0.10 | 0.10 | 99 | 1013.7 |
| 20260509142203 | 68 | 313 | 3.0 | 8.0 | 0.00 | 0.01 | 0.01 | 80 | 1015.5 |
| 20260509142053 | 67 | 57 | 3.0 | 3.0 | 0.07 | 0.10 | 0.10 | 99 | 1013.5 |
| 20260509141703 | 68 | 177 | 3.0 | 6.0 | 0.00 | 0.01 | 0.01 | 80 | 1015.4 |
| 20260509141549 | 67 | 17 | 2.0 | 2.0 | 0.00 | 0.09 | 0.09 | 99 | 1013.8 |
| 20260509141540 | 73 | 236 | 3.0 | 8.0 | 0.00 | 0.00 | 0.00 | 64 | 1010.8 |
| 20260509141203 | 67 | 122 | 3.0 | 7.0 | 0.00 | 0.01 | 0.01 | 81 | 1015.5 |
| 20260509141046 | 67 | 352 | 0.0 | 0.0 | 0.00 | 0.09 | 0.09 | 99 | 1013.5 |
| 20260509140703 | 68 | 312 | 4.0 | 9.0 | 0.00 | 0.01 | 0.01 | 81 | 1015.7 |
| 20260509140543 | 67 | 49 | 0.0 | 0.0 | 0.00 | 0.09 | 0.09 | 99 | 1013.4 |
| 20260509140203 | 67 | 149 | 2.0 | 8.0 | 0.00 | 0.01 | 0.01 | 82 | 1015.6 |
| 20260509140050 | 74 | 246 | 5.0 | 9.0 | 0.00 | 0.00 | 0.00 | 64 | 1010.9 |
| 20260509140041 | 67 | 38 | 0.0 | 0.0 | 0.00 | 0.09 | 0.09 | 99 | 1013.3 |
| 20260509135703 | 66 | 312 | 3.0 | 6.0 | 0.00 | 0.01 | 0.01 | 84 | 1015.5 |
| 20260509135537 | 68 | 26 | 0.0 | 0.0 | 0.05 | 0.09 | 0.09 | 99 | 1013.2 |
| 20260509135204 | 65 | 200 | 3.0 | 5.0 | 0.00 | 0.01 | 0.01 | 89 | 1015.6 |
| 20260509135035 | 67 | 323 | 0.0 | 0.0 | 0.05 | 0.09 | 0.09 | 99 | 1013.1 |
| 20260509134704 | 64 | 134 | 2.0 | 5.0 | 0.00 | 0.01 | 0.01 | 92 | 1015.7 |
| 20260509134538 | 75 | 226 | 2.0 | 9.0 | 0.00 | 0.00 | 0.00 | 62 | 1010.9 |
| 20260509134532 | 67 | 314 | 1.0 | 1.0 | 0.00 | 0.08 | 0.08 | 99 | 1013.2 |
| 20260509134204 | 63 | 295 | 3.0 | 6.0 | 0.00 | 0.01 | 0.01 | 94 | 1015.7 |
| 20260509134030 | 67 | 31 | 0.0 | 0.0 | 0.07 | 0.08 | 0.08 | 99 | 1013.2 |
| 20260509133703 | 62 | 193 | 1.0 | 2.0 | 0.00 | 0.01 | 0.01 | 95 | 1015.7 |
| 20260509133526 | 67 | 336 | 0.0 | 0.0 | 0.07 | 0.08 | 0.08 | 99 | 1013.2 |
| 20260509133203 | 62 | 254 | 1.0 | 2.0 | 0.00 | 0.01 | 0.01 | 96 | 1015.8 |
| 20260509133038 | 75 | 231 | 3.0 | 8.0 | 0.00 | 0.00 | 0.00 | 64 | 1010.8 |
| 20260509133024 | 67 | 338 | 0.0 | 0.0 | 0.00 | 0.07 | 0.07 | 99 | 1013.2 |
| 20260509132522 | 67 | 324 | 0.0 | 1.0 | 0.00 | 0.07 | 0.07 | 99 | 1013.4 |
| 20260509132204 | 60 | 228 | 2.0 | 2.0 | 0.00 | 0.01 | 0.01 | 96 | 1015.8 |
| 20260509132020 | 67 | 17 | 2.0 | 2.0 | 0.00 | 0.07 | 0.07 | 99 | 1013.1 |
| 20260509131704 | 60 | 239 | 2.0 | 3.0 | 0.00 | 0.01 | 0.01 | 96 | 1015.9 |
| 20260509131536 | 74 | 166 | 1.0 | 4.0 | 0.00 | 0.00 | 0.00 | 64 | 1010.9 |
| 20260509131516 | 67 | 2 | 0.0 | 0.0 | 0.00 | 0.07 | 0.07 | 99 | 1013.2 |
| 20260509131204 | 59 | 251 | 2.0 | 2.0 | 0.00 | 0.01 | 0.01 | 96 | 1015.9 |
| 20260509131013 | 67 | 346 | 0.0 | 0.0 | 0.00 | 0.07 | 0.07 | 99 | 1013.1 |
| 20260509130508 | 67 | 3 | 1.0 | 1.0 | 0.00 | 0.07 | 0.07 | 99 | 1013.0 |
| 20260509130204 | 59 | 243 | 3.0 | 3.0 | 0.00 | 0.01 | 0.01 | 96 | 1015.9 |
| 20260509130035 | 73 | 247 | 1.0 | 5.0 | 0.00 | 0.00 | 0.00 | 64 | 1011.1 |
| 20260509130006 | 67 | 352 | 1.0 | 1.0 | 0.05 | 0.07 | 0.07 | 99 | 1012.9 |
| 20260509125703 | 59 | 266 | 0.0 | 1.0 | 0.00 | 0.01 | 0.01 | 96 | 1015.8 |
| 20260509125502 | 67 | 293 | 1.0 | 1.0 | 0.12 | 0.07 | 0.07 | 99 | 1012.7 |
| 20260509125203 | 59 | 291 | 0.0 | 2.0 | 0.00 | 0.01 | 0.01 | 97 | 1015.8 |
| 20260509124958 | 67 | 342 | 1.0 | 1.0 | 0.19 | 0.06 | 0.06 | 99 | 1012.5 |
| 20260509124534 | 75 | 101 | 5.0 | 13.0 | 0.00 | 0.00 | 0.00 | 53 | 1011.2 |
| 20260509124455 | 67 | 45 | 2.0 | 2.0 | 0.12 | 0.05 | 0.05 | 99 | 1012.3 |
| 20260509124203 | 59 | 293 | 1.0 | 2.0 | 0.00 | 0.01 | 0.01 | 97 | 1015.9 |
| 20260509123952 | 67 | 26 | 1.0 | 1.0 | 0.07 | 0.03 | 0.03 | 99 | 1012.5 |
| 20260509123704 | 57 | 235 | 1.0 | 2.0 | 0.00 | 0.01 | 0.01 | 97 | 1015.9 |
| 20260509123450 | 67 | 45 | 0.0 | 0.0 | 0.07 | 0.03 | 0.03 | 99 | 1012.3 |
| 20260509123204 | 57 | 325 | 1.0 | 3.0 | 0.00 | 0.01 | 0.01 | 97 | 1016.0 |
| 20260509123039 | 75 | 97 | 9.0 | 13.0 | 0.00 | 0.00 | 0.00 | 55 | 1011.4 |
| 20260509122945 | 67 | 52 | 0.0 | 0.0 | 0.00 | 0.02 | 0.02 | 99 | 1012.2 |
| 20260509122703 | 56 | 256 | 3.0 | 5.0 | 0.01 | 0.01 | 0.01 | 97 | 1016.0 |
| 20260509122443 | 67 | 25 | 2.0 | 2.0 | 0.00 | 0.02 | 0.02 | 99 | 1012.0 |
| 20260509122203 | 55 | 238 | 2.0 | 5.0 | 0.01 | 0.01 | 0.01 | 97 | 1016.1 |
| 20260509121939 | 67 | 14 | 0.0 | 0.0 | 0.00 | 0.02 | 0.02 | 99 | 1012.0 |
| 20260509121704 | 55 | 287 | 2.0 | 3.0 | 0.01 | 0.01 | 0.01 | 97 | 1016.2 |
| 20260509121534 | 75 | 90 | 8.0 | 17.0 | 0.00 | 0.00 | 0.00 | 55 | 1011.2 |
| 20260509121436 | 66 | 32 | 0.0 | 0.0 | 0.00 | 0.02 | 0.02 | 99 | 1011.8 |
| 20260509121203 | 55 | 292 | 1.0 | 3.0 | 0.01 | 0.01 | 0.01 | 97 | 1016.1 |
| 20260509120934 | 66 | 52 | 0.0 | 0.0 | 0.00 | 0.02 | 0.02 | 99 | 1011.6 |
| 20260509120703 | 54 | 189 | 2.0 | 3.0 | 0.01 | 0.01 | 0.01 | 96 | 1016.2 |
| 20260509120432 | 0 | 46 | 1.0 | 1.0 | 0.00 | 0.02 | 0.02 | 1011.5 | |
| 20260509120203 | 54 | 269 | 2.0 | 5.0 | 0.00 | 0.00 | 0.00 | 96 | 1016.1 |
| 20260509120036 | 75 | 84 | 8.0 | 16.0 | 0.00 | 0.00 | 0.00 | 56 | 1011.2 |
| 20260509115930 | 0 | 304 | 0.0 | 0.0 | 0.00 | 0.02 | 0.02 | 1011.6 | |
| 20260509115704 | 54 | 296 | 1.0 | 5.0 | 0.00 | 0.00 | 0.00 | 97 | 1016.0 |
| 20260509115427 | 0 | 51 | 0.0 | 1.0 | 0.00 | 0.02 | 0.02 | 1011.5 | |
| 20260509115204 | 54 | 211 | 3.0 | 6.0 | 0.00 | 0.00 | 0.00 | 97 | 1016.0 |
| 20260509114924 | 0 | 11 | 0.0 | 0.0 | 0.00 | 0.02 | 0.02 | 1011.5 | |
| 20260509114704 | 54 | 243 | 3.0 | 5.0 | 0.00 | 0.00 | 0.00 | 96 | 1016.0 |
| 20260509114534 | 75 | 119 | 8.0 | 15.0 | 0.00 | 0.00 | 0.00 | 55 | 1011.1 |
| 20260509114423 | 0 | 7 | 1.0 | 1.0 | 0.00 | 0.02 | 0.02 | 1011.3 | |
| 20260509114203 | 53 | 253 | 2.0 | 3.0 | 0.00 | 0.00 | 0.00 | 96 | 1016.0 |
| 20260509113922 | 0 | 1 | 0.0 | 1.0 | 0.00 | 0.02 | 0.02 | 1011.3 | |
| 20260509113703 | 53 | 212 | 1.0 | 3.0 | 0.00 | 0.00 | 0.00 | 96 | 1016.1 |
| 20260509113419 | 0 | 11 | 1.0 | 1.0 | 0.00 | 0.02 | 0.02 | 1011.3 | |
| 20260509113203 | 53 | 216 | 1.0 | 3.0 | 0.00 | 0.00 | 0.00 | 96 | 1016.2 |
| 20260509113031 | 75 | 88 | 9.0 | 13.0 | 0.00 | 0.00 | 0.00 | 57 | 1011.2 |
| 20260509112915 | 0 | 346 | 0.0 | 0.0 | 0.00 | 0.02 | 0.02 | 1011.4 | |
| 20260509112704 | 53 | 295 | 1.0 | 5.0 | 0.00 | 0.00 | 0.00 | 96 | 1016.1 |
| 20260509112413 | 0 | 352 | 0.0 | 0.0 | 0.00 | 0.02 | 0.02 | 1011.3 | |
| 20260509112204 | 53 | 269 | 2.0 | 3.0 | 0.00 | 0.00 | 0.00 | 96 | 1016.2 |
| 20260509111910 | 0 | 342 | 0.0 | 1.0 | 0.00 | 0.02 | 0.02 | 1011.2 | |
| 20260509111704 | 52 | 199 | 1.0 | 3.0 | 0.00 | 0.00 | 0.00 | 96 | 1016.1 |
| 20260509111529 | 75 | 87 | 7.0 | 16.0 | 0.00 | 0.00 | 0.00 | 59 | 1011.4 |
| 20260509111406 | 0 | 359 | 1.0 | 1.0 | 0.05 | 0.02 | 0.02 | 1010.8 | |
| 20260509111204 | 52 | 218 | 1.0 | 3.0 | 0.00 | 0.00 | 0.00 | 96 | 1016.2 |
| 20260509110904 | 0 | 11 | 0.0 | 0.0 | 0.05 | 0.02 | 0.02 | 1010.7 | |
| 20260509110400 | 0 | 34 | 0.0 | 0.0 | 0.00 | 0.01 | 0.01 | 1010.6 | |
| 20260509110204 | 52 | 207 | 2.0 | 3.0 | 0.00 | 0.00 | 0.00 | 96 | 1016.2 |
| 20260509110028 | 75 | 89 | 9.0 | 14.0 | 0.00 | 0.00 | 0.00 | 60 | 1011.5 |
| 20260509105858 | 0 | 7 | 0.0 | 0.0 | 0.00 | 0.01 | 0.01 | 1010.8 | |
| 20260509105703 | 51 | 249 | 1.0 | 3.0 | 0.00 | 0.00 | 0.00 | 96 | 1016.3 |
| 20260509105356 | 0 | 348 | 0.0 | 0.0 | 0.00 | 0.01 | 0.01 | 1010.7 | |
| 20260509105203 | 51 | 235 | 1.0 | 3.0 | 0.00 | 0.00 | 0.00 | 96 | 1016.4 |
| 20260509104853 | 0 | 1 | 0.0 | 0.0 | 0.00 | 0.01 | 0.01 | 1010.5 | |
| 20260509104529 | 75 | 92 | 7.0 | 14.0 | 0.00 | 0.00 | 0.00 | 60 | 1011.5 |
| 20260509104349 | 0 | 23 | 1.0 | 2.0 | 0.00 | 0.01 | 0.01 | 1010.4 | |
| 20260509104204 | 50 | 251 | 1.0 | 5.0 | 0.00 | 0.00 | 0.00 | 96 | 1016.5 |
| 20260509103847 | 0 | 3 | 1.0 | 1.0 | 0.00 | 0.01 | 0.01 | 1010.2 | |
| 20260509103704 | 50 | 235 | 3.0 | 5.0 | 0.00 | 0.00 | 0.00 | 96 | 1016.6 |
| 20260509103344 | 0 | 20 | 1.0 | 1.0 | 0.00 | 0.01 | 0.01 | 1010.3 | |
| 20260509103203 | 50 | 244 | 1.0 | 2.0 | 0.00 | 0.00 | 0.00 | 96 | 1016.6 |
| 20260509103026 | 75 | 97 | 8.0 | 14.0 | 0.00 | 0.00 | 0.00 | 59 | 1011.8 |
| 20260509102843 | 0 | 6 | 0.0 | 1.0 | 0.00 | 0.01 | 0.01 | 1009.8 | |
| 20260509102703 | 50 | 343 | 1.0 | 2.0 | 0.00 | 0.00 | 0.00 | 96 | 1016.6 |
| 20260509102340 | 0 | 7 | 0.0 | 0.0 | 0.00 | 0.01 | 0.01 | 1009.7 | |
| 20260509102204 | 50 | 31 | 0.0 | 2.0 | 0.00 | 0.00 | 0.00 | 96 | 1016.5 |
| 20260509101835 | 0 | 24 | 2.0 | 2.0 | 0.00 | 0.01 | 0.01 | 1009.6 | |
| 20260509101704 | 50 | 262 | 0.0 | 2.0 | 0.00 | 0.00 | 0.00 | 96 | 1016.4 |
| 20260509101524 | 74 | 132 | 11.0 | 15.0 | 0.00 | 0.00 | 0.00 | 60 | 1011.8 |
| 20260509101332 | 0 | 62 | 1.0 | 1.0 | 0.00 | 0.01 | 0.01 | 1009.5 | |
| 20260509101203 | 50 | 210 | 2.0 | 3.0 | 0.00 | 0.00 | 0.00 | 96 | 1016.3 |
| 20260509100830 | 0 | 345 | 0.0 | 0.0 | 0.00 | 0.01 | 0.01 | 1009.5 | |
| 20260509100704 | 50 | 236 | 1.0 | 1.0 | 0.00 | 0.00 | 0.00 | 96 | 1016.4 |
| 20260509100327 | 0 | 25 | 0.0 | 0.0 | 0.00 | 0.01 | 0.01 | 1009.4 | |
| 20260509100204 | 50 | 271 | 0.0 | 1.0 | 0.00 | 0.00 | 0.00 | 96 | 1016.4 |
| 20260509100021 | 74 | 119 | 10.0 | 14.0 | 0.00 | 0.00 | 0.00 | 62 | 1011.8 |
| 20260509095823 | 0 | 8 | 0.0 | 0.0 | 0.00 | 0.01 | 0.01 | 1009.5 | |
| 20260509095704 | 50 | 251 | 0.0 | 1.0 | 0.00 | 0.00 | 0.00 | 96 | 1016.3 |
| 20260509095321 | 0 | 40 | 0.0 | 0.0 | 0.00 | 0.01 | 0.01 | 1009.9 | |
| 20260509095204 | 51 | 316 | 0.0 | 1.0 | 0.00 | 0.00 | 0.00 | 96 | 1016.4 |
| 20260509094818 | 0 | 24 | 0.0 | 0.0 | 0.00 | 0.01 | 0.01 | 1010.0 | |
| 20260509094704 | 50 | 247 | 1.0 | 2.0 | 0.00 | 0.00 | 0.00 | 96 | 1016.5 |
| 20260509094517 | 72 | 119 | 11.0 | 14.0 | 0.00 | 0.00 | 0.00 | 63 | 1011.9 |
| 20260509094314 | 0 | 29 | 0.0 | 0.0 | 0.00 | 0.01 | 0.01 | 1010.1 | |
| 20260509094204 | 50 | 242 | 1.0 | 2.0 | 0.00 | 0.00 | 0.00 | 96 | 1016.5 |
| 20260509093812 | 0 | 15 | 0.0 | 0.0 | 0.00 | 0.01 | 0.01 | 1010.6 | |
| 20260509093703 | 51 | 240 | 0.0 | 2.0 | 0.00 | 0.00 | 0.00 | 95 | 1016.5 |
| 20260509093309 | 0 | 324 | 0.0 | 0.0 | 0.00 | 0.01 | 0.01 | 1010.9 | |
| 20260509093204 | 51 | 280 | 1.0 | 2.0 | 0.00 | 0.00 | 0.00 | 95 | 1016.5 |
| 20260509093015 | 71 | 127 | 7.0 | 13.0 | 0.00 | 0.00 | 0.00 | 66 | 1011.9 |
| 20260509092808 | 0 | 5 | 0.0 | 0.0 | 0.00 | 0.01 | 0.01 | 1010.8 | |
| 20260509092704 | 51 | 252 | 1.0 | 2.0 | 0.00 | 0.00 | 0.00 | 95 | 1016.5 |
| 20260509092306 | 0 | 268 | 0.0 | 1.0 | 0.00 | 0.01 | 0.01 | 1010.9 | |
| 20260509092204 | 51 | 313 | 1.0 | 2.0 | 0.00 | 0.00 | 0.00 | 95 | 1016.5 |
| 20260509091803 | 0 | 19 | 0.0 | 0.0 | 0.00 | 0.01 | 0.01 | 1010.7 | |
| 20260509091703 | 51 | 322 | 1.0 | 2.0 | 0.00 | 0.00 | 0.00 | 95 | 1016.5 |
| 20260509091513 | 70 | 112 | 9.0 | 16.0 | 0.00 | 0.00 | 0.00 | 66 | 1011.9 |
| 20260509091259 | 0 | 28 | 0.0 | 0.0 | 0.00 | 0.01 | 0.01 | 1010.4 | |
| 20260509091204 | 51 | 225 | 0.0 | 2.0 | 0.00 | 0.00 | 0.00 | 95 | 1016.4 |
| 20260509090757 | 0 | 55 | 0.0 | 1.0 | 0.00 | 0.01 | 0.01 | 1010.3 | |
| 20260509090703 | 51 | 225 | 0.0 | 1.0 | 0.00 | 0.00 | 0.00 | 95 | 1016.5 |
| 20260509090254 | 0 | 29 | 0.0 | 0.0 | 0.00 | 0.01 | 0.01 | 1009.9 | |
| 20260509090203 | 51 | 117 | 0.0 | 1.0 | 0.00 | 0.00 | 0.00 | 95 | 1016.5 |
| 20260509090012 | 71 | 115 | 8.0 | 14.0 | 0.00 | 0.00 | 0.00 | 67 | 1011.7 |
| 20260509085751 | 0 | 38 | 0.0 | 0.0 | 0.00 | 0.01 | 0.01 | 1010.4 | |
| 20260509085248 | 0 | 14 | 0.0 | 0.0 | 0.00 | 0.01 | 0.01 | 1010.4 | |
| 20260509085204 | 51 | 130 | 0.0 | 1.0 | 0.00 | 0.00 | 0.00 | 95 | 1016.5 |
| 20260509084745 | 0 | 41 | 0.0 | 0.0 | 0.00 | 0.01 | 0.01 | 1010.7 | |
| 20260509084703 | 51 | 227 | 0.0 | 1.0 | 0.00 | 0.00 | 0.00 | 95 | 1016.6 |
| 20260509084512 | 70 | 130 | 10.0 | 15.0 | 0.00 | 0.00 | 0.00 | 67 | 1011.5 |
| 20260509084242 | 0 | 41 | 0.0 | 0.0 | 0.00 | 0.01 | 0.01 | 1011.1 | |
| 20260509084204 | 51 | 230 | 0.0 | 1.0 | 0.00 | 0.00 | 0.00 | 95 | 1016.6 |
| 20260509083740 | 0 | 89 | 0.0 | 0.0 | 0.00 | 0.01 | 0.01 | 1011.6 | |
| 20260509083703 | 51 | 230 | 0.0 | 1.0 | 0.00 | 0.00 | 0.00 | 95 | 1016.5 |
| 20260509083236 | 0 | 48 | 0.0 | 0.0 | 0.00 | 0.01 | 0.01 | 1012.2 | |
| 20260509083203 | 51 | 205 | 0.0 | 1.0 | 0.00 | 0.00 | 0.00 | 94 | 1016.6 |
| 20260509083015 | 70 | 119 | 9.0 | 15.0 | 0.00 | 0.00 | 0.00 | 68 | 1011.8 |
| 20260509082733 | 0 | 78 | 0.0 | 1.0 | 0.00 | 0.01 | 0.01 | 1012.9 | |
| 20260509082704 | 51 | 205 | 0.0 | 2.0 | 0.00 | 0.00 | 0.00 | 94 | 1016.8 |
| 20260509082229 | 0 | 18 | 0.0 | 0.0 | 0.00 | 0.01 | 0.01 | 1013.1 | |
| 20260509082204 | 51 | 232 | 1.0 | 1.0 | 0.00 | 0.00 | 0.00 | 94 | 1016.8 |
| 20260509081726 | 0 | 18 | 1.0 | 1.0 | 0.00 | 0.01 | 0.01 | 1013.1 | |
| 20260509081704 | 51 | 259 | 0.0 | 1.0 | 0.00 | 0.00 | 0.00 | 94 | 1016.8 |
| 20260509081507 | 69 | 92 | 11.0 | 15.0 | 0.00 | 0.00 | 0.00 | 71 | 1011.7 |
| 20260509081224 | 0 | 19 | 0.0 | 0.0 | 0.00 | 0.01 | 0.01 | 1013.1 | |
| 20260509081204 | 52 | 227 | 1.0 | 2.0 | 0.00 | 0.00 | 0.00 | 94 | 1016.8 |
| 20260509080722 | 0 | 23 | 0.0 | 0.0 | 0.00 | 0.01 | 0.01 | 1013.1 | |
| 20260509080704 | 52 | 228 | 0.0 | 1.0 | 0.00 | 0.00 | 0.00 | 94 | 1016.6 |
| 20260509080219 | 0 | 19 | 0.0 | 1.0 | 0.00 | 0.01 | 0.01 | 1013.2 | |
| 20260509080204 | 52 | 166 | 0.0 | 1.0 | 0.00 | 0.00 | 0.00 | 94 | 1016.7 |
| 20260509080002 | 67 | 116 | 9.0 | 13.0 | 0.00 | 0.00 | 0.00 | 74 | 1011.8 |
| 20260509075717 | 0 | 24 | 0.0 | 0.0 | 0.00 | 0.01 | 0.01 | 1012.8 | |
| 20260509075704 | 52 | 142 | 0.0 | 2.0 | 0.00 | 0.00 | 0.00 | 94 | 1016.7 |
| 20260509075215 | 0 | 24 | 0.0 | 0.0 | 0.00 | 0.01 | 0.01 | 1012.8 | |
| 20260509075204 | 52 | 166 | 0.0 | 1.0 | 0.00 | 0.00 | 0.00 | 93 | 1016.7 |
| 20260509074711 | 0 | 20 | 0.0 | 0.0 | 0.00 | 0.01 | 0.01 | 1012.7 | |
| 20260509074703 | 52 | 191 | 0.0 | 1.0 | 0.00 | 0.00 | 0.00 | 93 | 1016.7 |
| 20260509074609 | 66 | 138 | 7.0 | 14.0 | 0.00 | 0.00 | 0.00 | 77 | 1011.9 |
| 20260509074209 | 0 | 32 | 0.0 | 0.0 | 0.00 | 0.01 | 0.01 | 1012.6 | |
| 20260509074204 | 52 | 212 | 0.0 | 2.0 | 0.00 | 0.00 | 0.00 | 93 | 1016.9 |
| 20260509073705 | 0 | 33 | 0.0 | 1.0 | 0.00 | 0.01 | 0.01 | 1012.8 | |
| 20260509073703 | 52 | 235 | 0.0 | 1.0 | 0.00 | 0.00 | 0.00 | 93 | 1016.9 |
| 20260509073204 | 52 | 142 | 0.0 | 1.0 | 0.00 | 0.00 | 0.00 | 93 | 1016.7 |
| 20260509073201 | 66 | 7 | 0.0 | 0.0 | 0.00 | 0.01 | 0.01 | 99 | 1012.7 |
| 20260509073058 | 65 | 140 | 11.0 | 17.0 | 0.00 | 0.00 | 0.00 | 76 | 1012.2 |
| 20260509072658 | 66 | 179 | 1.0 | 1.0 | 0.00 | 0.01 | 0.01 | 99 | 1012.8 |
| 20260509072203 | 52 | 151 | 0.0 | 1.0 | 0.00 | 0.00 | 0.00 | 92 | 1017.0 |
| 20260509072155 | 66 | 310 | 0.0 | 0.0 | 0.00 | 0.01 | 0.01 | 99 | 1012.6 |
| 20260509071703 | 52 | 183 | 0.0 | 2.0 | 0.00 | 0.00 | 0.00 | 92 | 1016.8 |
| 20260509071652 | 66 | 355 | 0.0 | 0.0 | 0.00 | 0.01 | 0.01 | 99 | 1012.5 |
| 20260509071608 | 64 | 150 | 8.0 | 14.0 | 0.00 | 0.00 | 0.00 | 80 | 1012.2 |
| 20260509071203 | 53 | 200 | 1.0 | 2.0 | 0.00 | 0.00 | 0.00 | 92 | 1017.1 |
| 20260509071149 | 66 | 323 | 0.0 | 1.0 | 0.00 | 0.01 | 0.01 | 99 | 1012.4 |
| 20260509070704 | 53 | 225 | 0.0 | 1.0 | 0.00 | 0.00 | 0.00 | 92 | 1017.0 |
| 20260509070646 | 66 | 345 | 0.0 | 0.0 | 0.00 | 0.01 | 0.01 | 99 | 1012.3 |
| 20260509070142 | 66 | 14 | 0.0 | 0.0 | 0.00 | 0.01 | 0.01 | 99 | 1012.1 |
| 20260509070054 | 62 | 125 | 5.0 | 10.0 | 0.00 | 0.00 | 0.00 | 84 | 1012.2 |